Simultaneous Nadir Overpasses (SNOs) Predictions

Prediction of SNOs between GOES-16 and FY3D Satellite Orbit:

Table of predicted SNOs for the next 14.0 days since TLE Epoch: 9/26/2020
Index Date Time (GOES-16) GOES-16 Lat,Lon FY3D Lat,Lon Distance(km) Time Diff (sec)
1 09/26/2020 18:43:02 0.01, -75.19 -0.63, -78.04 325.05 80
2 09/27/2020 18:26:45 0.01, -75.20 0.39, -73.46 197.36 80
3 09/29/2020 06:48:15 -0.02, -75.20 0.77, -78.65 394.17 80
4 09/30/2020 06:26:38 -0.01, -75.20 -0.26, -74.07 128.71 80
5 10/01/2020 18:48:16 0.02, -75.22 -0.92, -79.29 464.93 80
6 10/02/2020 18:32:00 0.01, -75.23 0.11, -74.71 58.52 80
7 10/05/2020 06:31:53 -0.01, -75.26 0.02, -75.32 8.17 80
8 10/07/2020 18:34:35 0.01, -75.29 -0.17, -75.97 77.41 80
9 10/08/2020 18:18:18 0.01, -75.31 0.86, -71.38 446.44 80
